Clarksburg, WV

8:20 PM EDT on September 20, 2019 (GMT -0400)
Benedum

Weather History for KCKB - May, 2019

Change the Weather History Date:

Sunday, May 19, 2019

  Actual Average Record
Temperature  
Mean Temperature 74 °F -  
Max Temperature 88 °F 73 °F 90 °F (1931)
Min Temperature 60 °F 50 °F 32 °F (2009)
Cooling Degree Days 9    
Month to date cooling degree days 64  
Year to date cooling degree days 89  
Growing Degree Days 24 (Base 50)    
Moisture  
Dew Point 62 °F    
Average Humidity 65    
Maximum Humidity 90    
Minimum Humidity 40    
Precipitation  
Precipitation 0.02 in - - ()
Month to date precipitation 2.11  
Year to date precipitation 16.24  
Sea Level Pressure  
Sea Level Pressure 29.89 in    
Wind  
Wind Speed 6 mph (SSW)    
Max Wind Speed 24 mph    
Max Gust Speed 34 mph    
Visibility 10 miles    
Events Thunderstorm    
Averages and records for this station are not official NWS values.
T = Trace of Precipitation, MM = Missing Value Source: NWS Daily Summary

Daily Weather History Graph

Daily Weather History Graph

Search for Another Location

Airport or City:

Astronomy

May. 19, 2019 Rise Set
Actual Time 6:04 AM EDT 8:31 PM EDT
Civil Twilight 5:33 AM EDT 9:01 PM EDT
Nautical Twilight 4:55 AM EDT 9:39 PM EDT
Astronomical Twilight 4:13 AM EDT 10:21 PM EDT
Moon 9:29 PM EDT (5/19) 6:48 AM EDT (5/19)
Length of Visible Light 15h 28m
Length of Day
14h 26m
Full, 99% of the Moon is Illuminated
May 19
Full
May 26
Last Quarter
Jun 3
New
Jun 10
First Quarter
Jun 17
Full

Hourly Weather History & Observations

Time (EDT) Temp. Heat Index Dew Point Humidity Pressure Visibility Wind Dir Wind Speed Gust Speed Precip Events Conditions
12:53 AM 64.9 °F - 59.0 °F 81% 29.94 in 10.0 mi Calm Calm - N/A   Clear
1:53 AM 64.0 °F - 57.9 °F 80% 29.93 in 10.0 mi Calm Calm - N/A   Clear
2:53 AM 62.1 °F - 57.0 °F 84% 29.93 in 10.0 mi Calm Calm - N/A   Clear
3:53 AM 62.1 °F - 57.9 °F 86% 29.93 in 8.0 mi Calm Calm - N/A   Clear
4:53 AM 61.0 °F - 57.0 °F 87% 29.94 in 7.0 mi Calm Calm - N/A   Clear
5:53 AM 62.1 °F - 57.0 °F 84% 29.94 in 10.0 mi Calm Calm - N/A   Partly Cloudy
6:53 AM 64.0 °F - 59.0 °F 84% 29.94 in 10.0 mi Calm Calm - N/A   Mostly Cloudy
7:53 AM 66.0 °F - 61.0 °F 84% 29.95 in 9.0 mi Calm Calm - N/A   Clear
8:53 AM 73.9 °F - 64.0 °F 71% 29.94 in 10.0 mi Calm Calm - N/A   Clear
9:53 AM 80.1 °F 81.9 °F 64.9 °F 60% 29.94 in 10.0 mi SSW 9.2 mph - N/A   Clear
10:53 AM 82.9 °F 84.6 °F 64.9 °F 54% 29.93 in 10.0 mi WSW 12.7 mph - N/A   Clear
11:53 AM 84.9 °F 86.6 °F 64.9 °F 51% 29.93 in 10.0 mi SSW 8.1 mph 18.4 mph N/A   Partly Cloudy
12:53 PM 82.9 °F 84.0 °F 63.0 °F 51% 29.92 in 10.0 mi SW 11.5 mph 18.4 mph N/A   Mostly Cloudy
1:53 PM 87.1 °F 87.5 °F 62.1 °F 43% 29.89 in 10.0 mi West 16.1 mph 21.9 mph N/A   Scattered Clouds
2:53 PM 87.1 °F 86.7 °F 60.1 °F 40% 29.87 in 10.0 mi West 16.1 mph 23.0 mph N/A   Partly Cloudy
3:53 PM 88.0 °F 87.9 °F 61.0 °F 40% 29.84 in 10.0 mi SW 16.1 mph 21.9 mph N/A   Clear
4:28 PM 86.0 °F 85.4 °F 59.0 °F 40% 29.88 in 10.0 mi SW 13.8 mph 21.9 mph N/A Thunderstorm Thunderstorm
4:41 PM 75.0 °F - 63.0 °F 66% 29.87 in 10.0 mi SSE 11.5 mph 27.6 mph N/A Thunderstorm Thunderstorm
4:53 PM 77.0 °F - 64.9 °F 66% 29.83 in 10.0 mi SSE 8.1 mph - N/A Thunderstorm Scattered Clouds
5:02 PM 79.0 °F - 63.0 °F 58% 29.87 in 10.0 mi South 10.4 mph - N/A   Partly Cloudy
5:53 PM 79.0 °F - 64.0 °F 60% 29.83 in 10.0 mi South 10.4 mph - N/A   Clear
6:53 PM 80.1 °F 82.1 °F 66.0 °F 62% 29.83 in 10.0 mi SSW 9.2 mph - N/A   Clear
7:53 PM 78.1 °F - 66.0 °F 66% 29.83 in 10.0 mi South 4.6 mph - N/A   Partly Cloudy
8:53 PM 77.0 °F - 66.0 °F 69% 29.82 in 10.0 mi Calm Calm - N/A   Mostly Cloudy
9:53 PM 75.0 °F - 60.1 °F 60% 29.82 in 10.0 mi South 11.5 mph 27.6 mph N/A   Partly Cloudy
10:53 PM 70.0 °F - 61.0 °F 73% 29.84 in 10.0 mi South 5.8 mph - N/A   Clear
11:53 PM 71.1 °F - 62.1 °F 73% 29.84 in 10.0 mi South 5.8 mph - N/A   Overcast